When you browse on this site, cookies collect data to enhance your experience and personalize the content and advertising you see.
Visit our Privacy Policy to learn more. By continuing to use the site, you agree to this use of cookies and data.
  • In Hungary
  • List of Countries
  • For 7 days
  • Water Temperature
  • Weather Map
  • News
  • Weather Widgets
  • user-avatar
    Login

    Hourly Weather Kyzylsengir

    Today, 7 December, Saturday

    Time Temperature Precipitation Wind Pressure Humidity
    00:00 +6°C° 0 mm 1 mps 720 mmHg 86%
    01:00 +6°C° 0 mm 1 mps 720 mmHg 84%
    02:00 +6°C° 0 mm 1 mps 720 mmHg 83%
    03:00 +5°C° 0 mm 2 mps 720 mmHg 81%
    04:00 +5°C° 0 mm 2 mps 719 mmHg 79%
    05:00 +5°C° 0 mm 2 mps 719 mmHg 77%
    06:00 +5°C° 0 mm 2 mps 719 mmHg 75%
    07:00 +5°C° 0 mm 2 mps 719 mmHg 72%
    08:00 +5°C° 0 mm 2 mps 719 mmHg 69%
    09:00 +7°C° 0 mm 2 mps 719 mmHg 64%
    10:00 +9°C° 0 mm 2 mps 719 mmHg 59%
    11:00 +10°C° 0 mm 2 mps 719 mmHg 55%
    12:00 +12°C° 0 mm 2 mps 719 mmHg 54%
    13:00 +12°C° 0 mm 2 mps 718 mmHg 54%
    14:00 +13°C° 0 mm 2 mps 718 mmHg 53%
    15:00 +12°C° 0 mm 2 mps 718 mmHg 59%
    16:00 +9°C° 0 mm 2 mps 717 mmHg 65%
    17:00 +8°C° 0 mm 2 mps 717 mmHg 71%
    18:00 +8°C° 0 mm 2 mps 717 mmHg 70%
    19:00 +7°C° 0 mm 2 mps 717 mmHg 69%
    20:00 +7°C° 0 mm 2 mps 717 mmHg 68%
    21:00 +7°C° 0 mm 2 mps 717 mmHg 66%
    22:00 +7°C° 0 mm 2 mps 717 mmHg 64%
    23:00 +7°C° 0 mm 2 mps 717 mmHg 61%

    Tomorrow, 8 December, Sunday

    Time Temperature Precipitation Wind Pressure Humidity
    00:00 +6°C° 0 mm 2 mps 716 mmHg 60%
    01:00 +6°C° 0 mm 2 mps 716 mmHg 59%
    02:00 +6°C° 0 mm 2 mps 716 mmHg 57%
    03:00 +6°C° 0 mm 2 mps 715 mmHg 56%
    04:00 +6°C° 0 mm 2 mps 715 mmHg 55%
    05:00 +6°C° 0 mm 2 mps 715 mmHg 54%
    06:00 +6°C° 0 mm 2 mps 715 mmHg 53%
    07:00 +6°C° 0 mm 2 mps 715 mmHg 52%
    08:00 +6°C° 0 mm 2 mps 715 mmHg 51%
    09:00 +8°C° 0 mm 2 mps 715 mmHg 48%
    10:00 +11°C° 0 mm 1 mps 715 mmHg 44%
    11:00 +13°C° 0 mm 1 mps 715 mmHg 40%
    12:00 +13°C° 0 mm 1 mps 714 mmHg 39%
    13:00 +14°C° 0 mm 1 mps 714 mmHg 38%
    14:00 +15°C° 0 mm 1 mps 713 mmHg 37%
    15:00 +13°C° 0 mm 1 mps 713 mmHg 42%
    16:00 +12°C° 0 mm 1 mps 712 mmHg 47%
    17:00 +10°C° 0 mm 1 mps 712 mmHg 52%
    18:00 +10°C° 0 mm 1 mps 712 mmHg 50%
    19:00 +9°C° 0 mm 1 mps 711 mmHg 49%
    20:00 +9°C° 0 mm 1 mps 711 mmHg 48%
    21:00 +8°C° 0 mm 2 mps 711 mmHg 46%
    22:00 +7°C° 0 mm 2 mps 710 mmHg 44%
    23:00 +7°C° 0 mm 2 mps 710 mmHg 43%

    Day after tomorrow, 9 December, Monday

    Time Temperature Precipitation Wind Pressure Humidity
    00:00 +7°C° 0 mm 2 mps 710 mmHg 41%
    01:00 +7°C° 0 mm 2 mps 709 mmHg 40%
    02:00 +7°C° 0 mm 2 mps 709 mmHg 39%
    03:00 +7°C° 0 mm 2 mps 709 mmHg 38%
    04:00 +7°C° 0 mm 2 mps 709 mmHg 38%
    05:00 +7°C° 0 mm 2 mps 708 mmHg 38%
    06:00 +7°C° 0 mm 2 mps 708 mmHg 37%
    07:00 +7°C° 0 mm 2 mps 708 mmHg 37%
    08:00 +8°C° 0 mm 1 mps 709 mmHg 37%
    09:00 +10°C° 0 mm 1 mps 709 mmHg 35%
    10:00 +11°C° 0 mm 1 mps 709 mmHg 34%
    11:00 +13°C° 0 mm 1 mps 709 mmHg 32%
    12:00 +14°C° 0 mm 1 mps 709 mmHg 32%
    13:00 +15°C° 0 mm 1 mps 709 mmHg 32%
    14:00 +16°C° 0 mm 1 mps 709 mmHg 32%
    15:00 +14°C° 0 mm 1 mps 709 mmHg 34%
    16:00 +13°C° 0 mm 1 mps 709 mmHg 35%
    17:00 +11°C° 0 mm 1 mps 708 mmHg 37%
    18:00 +11°C° 0 mm 1 mps 709 mmHg 36%
    19:00 +10°C° 0 mm 2 mps 709 mmHg 35%
    20:00 +10°C° 0 mm 2 mps 709 mmHg 34%
    21:00 +10°C° 0 mm 2 mps 709 mmHg 33%
    22:00 +9°C° 0 mm 2 mps 710 mmHg 33%
    23:00 +10°C° 0 mm 1 mps 710 mmHg 33%

    10 December, Tuesday

    Time Temperature Precipitation Wind Pressure Humidity
    00:00 +9°C° 0 mm 2 mps 710 mmHg 33%
    01:00 +9°C° 0 mm 2 mps 710 mmHg 34%
    02:00 +9°C° 0 mm 2 mps 710 mmHg 35%
    03:00 +9°C° 0 mm 2 mps 710 mmHg 34%
    04:00 +9°C° 0 mm 3 mps 710 mmHg 34%
    05:00 +9°C° 0 mm 3 mps 710 mmHg 34%
    06:00 +9°C° 0 mm 3 mps 710 mmHg 34%
    07:00 +9°C° 0 mm 2 mps 710 mmHg 34%
    08:00 +9°C° 0 mm 2 mps 710 mmHg 33%
    09:00 +12°C° 0 mm 2 mps 710 mmHg 33%
    10:00 +13°C° 0 mm 1 mps 711 mmHg 32%
    11:00 +14°C° 0 mm 1 mps 711 mmHg 31%
    12:00 +15°C° 0 mm 1 mps 711 mmHg 34%
    13:00 +15°C° 0 mm 2 mps 710 mmHg 36%
    14:00 +16°C° 0 mm 2 mps 710 mmHg 38%
    15:00 +14°C° 0 mm 2 mps 710 mmHg 43%
    16:00 +13°C° 0 mm 2 mps 710 mmHg 47%
    17:00 +12°C° 0 mm 2 mps 710 mmHg 51%
    18:00 +12°C° 0 mm 2 mps 710 mmHg 51%
    19:00 +12°C° 0 mm 2 mps 710 mmHg 52%
    20:00 +12°C° 0 mm 2 mps 710 mmHg 52%
    21:00 +12°C° 0 mm 2 mps 710 mmHg 54%
    22:00 +12°C° 0 mm 2 mps 710 mmHg 55%
    23:00 +10°C° 0 mm 2 mps 710 mmHg 56%

    11 December, Wednesday

    Time Temperature Precipitation Wind Pressure Humidity
    00:00 +10°C° 0 mm 2 mps 710 mmHg 58%
    01:00 +9°C° 0 mm 2 mps 710 mmHg 60%
    02:00 +9°C° 0 mm 2 mps 709 mmHg 62%
    03:00 +9°C° 0 mm 2 mps 709 mmHg 61%
    04:00 +8°C° 0 mm 2 mps 709 mmHg 61%
    05:00 +8°C° 0 mm 2 mps 709 mmHg 61%
    06:00 +8°C° 0 mm 2 mps 709 mmHg 58%
    07:00 +8°C° 0 mm 2 mps 708 mmHg 56%
    08:00 +8°C° 0 mm 2 mps 708 mmHg 54%
    09:00 +10°C° 0 mm 2 mps 708 mmHg 49%
    10:00 +12°C° 0 mm 1 mps 708 mmHg 45%
    11:00 +13°C° 0 mm 1 mps 709 mmHg 41%
    12:00 +14°C° 0 mm 1 mps 708 mmHg 41%
    13:00 +14°C° 0 mm 1 mps 707 mmHg 41%
    14:00 +14°C° 0 mm 1 mps 706 mmHg 41%
    15:00 +13°C° 0 mm 1 mps 706 mmHg 46%
    16:00 +12°C° 0 mm 1 mps 706 mmHg 51%
    17:00 +11°C° 0 mm 1 mps 705 mmHg 56%
    18:00 +10°C° 0 mm 1 mps 705 mmHg 57%
    19:00 +10°C° 0 mm 1 mps 705 mmHg 58%
    20:00 +9°C° 0 mm 1 mps 705 mmHg 59%
    21:00 +9°C° 0 mm 1 mps 704 mmHg 59%
    22:00 +7°C° 0 mm 2 mps 704 mmHg 59%
    23:00 +7°C° 0 mm 2 mps 704 mmHg 60%

    12 December, Thursday

    Time Temperature Precipitation Wind Pressure Humidity
    00:00 +7°C° 0 mm 2 mps 704 mmHg 59%
    01:00 +7°C° 0 mm 2 mps 704 mmHg 58%
    02:00 +7°C° 0 mm 2 mps 704 mmHg 57%
    03:00 +7°C° 0 mm 2 mps 704 mmHg 59%
    04:00 +7°C° 0 mm 2 mps 705 mmHg 60%
    05:00 +7°C° 0 mm 2 mps 705 mmHg 62%
    06:00 +7°C° 0 mm 2 mps 705 mmHg 64%
    07:00 +7°C° 0 mm 2 mps 706 mmHg 66%
    08:00 +6°C° 0 mm 2 mps 706 mmHg 67%
    09:00 +7°C° 0 mm 2 mps 706 mmHg 65%
    10:00 +8°C° 0 mm 2 mps 707 mmHg 62%
    11:00 +9°C° 0 mm 2 mps 707 mmHg 59%
    12:00 +9°C° 0 mm 2 mps 707 mmHg 58%
    13:00 +9°C° 0 mm 2 mps 707 mmHg 57%
    14:00 +11°C° 0 mm 1 mps 707 mmHg 56%
    15:00 +10°C° 0 mm 1 mps 707 mmHg 58%
    16:00 +10°C° 0 mm 1 mps 707 mmHg 61%
    17:00 +9°C° 0 mm 1 mps 708 mmHg 64%
    18:00 +9°C° 0 mm 1 mps 708 mmHg 66%
    19:00 +9°C° 0 mm 1 mps 708 mmHg 67%
    20:00 +7°C° 0 mm 0 mps 709 mmHg 69%
    21:00 +7°C° 0 mm 0 mps 709 mmHg 70%
    22:00 +8°C° 0 mm 1 mps 709 mmHg 71%
    23:00 +8°C° 0 mm 1 mps 709 mmHg 72%
    Show more